2022-019U

Last updated on Sun Jul 28 2024 00:02:10 GMT+0000 (Coordinated Universal Time)

1 51842U 22019U 24209.86437080 .06801005 25982-5 60134-3 0 9995 2 51842 97.4926 321.4577 0018121 267.1790 220.0847 16.38309928135600

Satellite not in orbit